Time,TemperatureF,DewpointF,PressureIn,WindDirection,WindDirectionDegrees,WindSpeedMPH,WindSpeedGustMPH,Humidity,HourlyPrecipIn,Conditions,Clouds,dailyrainin,SoftwareType,DateUTC
2013-03-16 00:00:00,40.1,39.3,29.81,SW,217,0.0,0.0,97,0.00,,---,0.00,VWS V14.00,2013-03-16 04:00:00,
2013-03-16 00:30:00,40.0,39.2,29.78,SSE,149,0.0,0.0,97,0.00,,---,0.00,VWS V14.00,2013-03-16 04:30:00,
2013-03-16 01:00:00,40.2,39.4,29.75,ESE,106,0.0,0.0,97,0.00,,---,0.00,VWS V14.00,2013-03-16 05:00:00,
2013-03-16 01:30:00,40.1,39.3,29.71,East,94,1.0,4.0,97,0.00,,---,0.00,VWS V14.00,2013-03-16 05:30:00,
2013-03-16 02:00:00,39.7,38.9,29.69,East,94,2.0,5.0,97,0.00,,---,0.00,VWS V14.00,2013-03-16 06:00:00,
2013-03-16 02:30:00,40.0,39.2,29.70,East,100,0.0,4.0,97,0.00,,---,0.00,VWS V14.00,2013-03-16 06:30:00,
2013-03-16 03:00:00,39.7,38.9,29.70,NE,49,2.0,3.0,97,0.00,,---,0.00,VWS V14.00,2013-03-16 07:00:00,
2013-03-16 03:30:00,39.5,38.7,29.69,SE,129,0.0,4.0,97,0.00,,---,0.00,VWS V14.00,2013-03-16 07:30:00,
2013-03-16 04:00:00,39.4,38.6,29.69,ESE,110,0.0,0.0,97,0.00,,---,0.00,VWS V14.00,2013-03-16 08:00:00,
2013-03-16 04:30:00,39.7,38.9,29.69,NNE,15,2.0,3.0,97,0.00,,---,0.00,VWS V14.00,2013-03-16 08:30:00,
2013-03-16 05:00:00,39.8,39.0,29.67,East,91,0.0,4.0,97,0.00,,---,0.00,VWS V14.00,2013-03-16 09:00:00,
2013-03-16 05:30:00,39.9,39.1,29.64,East,88,2.0,5.0,97,0.00,,---,0.00,VWS V14.00,2013-03-16 09:30:00,
2013-03-16 06:00:00,39.0,38.2,29.67,ENE,71,3.0,9.0,97,0.00,,---,0.00,VWS V14.00,2013-03-16 10:00:00,
2013-03-16 06:29:00,38.0,37.2,29.69,NE,41,4.0,6.0,97,0.00,,---,0.00,VWS V14.00,2013-03-16 10:29:00,
2013-03-16 06:30:00,38.0,37.2,29.69,NE,41,4.0,6.0,97,0.00,,---,0.00,VWS V14.01,2013-03-16 10:30:00,
2013-03-16 07:00:00,37.0,36.2,29.68,ESE,102,1.0,6.0,97,0.00,,---,0.00,VWS V14.00,2013-03-16 11:00:00,
2013-03-16 07:30:00,36.4,35.6,29.69,ENE,73,1.0,6.0,97,0.00,,---,0.00,VWS V14.00,2013-03-16 11:30:00,
2013-03-16 08:00:00,36.1,35.3,29.71,NE,41,0.0,6.0,97,0.00,,---,0.00,VWS V14.00,2013-03-16 12:00:00,
2013-03-16 08:30:00,36.0,35.2,29.71,NE,42,1.0,5.0,97,0.00,,---,0.00,VWS V14.00,2013-03-16 12:30:00,
2013-03-16 09:00:00,35.9,35.1,29.72,ENE,61,4.0,5.0,97,0.00,,---,0.00,VWS V14.00,2013-03-16 13:00:00,
2013-03-16 09:30:00,35.7,34.9,29.73,ENE,75,3.0,6.0,97,0.00,,---,0.00,VWS V14.00,2013-03-16 13:30:00,
2013-03-16 10:00:00,35.8,35.0,29.74,East,92,2.0,5.0,97,0.00,,---,0.00,VWS V14.00,2013-03-16 14:00:00,
2013-03-16 10:30:00,35.7,34.9,29.75,ENE,63,3.0,5.0,97,0.00,,---,0.00,VWS V14.00,2013-03-16 14:30:00,
2013-03-16 11:00:00,35.5,34.7,29.76,NE,40,1.0,6.0,97,0.00,,---,0.00,VWS V14.00,2013-03-16 15:00:00,
2013-03-16 11:30:00,34.9,34.1,29.80,NE,44,2.0,8.0,97,0.00,,---,0.00,VWS V14.00,2013-03-16 15:30:00,
2013-03-16 12:00:00,35.2,34.4,29.81,NNE,19,4.0,8.0,97,0.00,,---,0.00,VWS V14.00,2013-03-16 16:00:00,
2013-03-16 12:30:00,35.4,34.4,29.83,NE,45,3.0,10.0,96,0.00,,---,0.00,VWS V14.00,2013-03-16 16:30:00,
2013-03-16 13:00:00,35.8,34.5,29.84,North,356,8.0,12.0,95,0.00,,---,0.00,VWS V14.00,2013-03-16 17:00:00,
2013-03-16 13:30:00,34.9,33.6,29.86,ENE,72,2.0,11.0,95,0.00,,---,0.00,VWS V14.00,2013-03-16 17:30:00,
2013-03-16 14:00:00,34.3,33.0,29.88,North,9,5.0,10.0,95,0.00,,---,0.00,VWS V14.00,2013-03-16 18:00:00,
2013-03-16 14:30:00,34.4,33.1,29.89,NNW,328,6.0,11.0,95,0.00,,---,0.00,VWS V14.00,2013-03-16 18:30:00,
2013-03-16 15:00:00,34.3,32.8,29.90,North,356,6.0,12.0,94,0.00,,---,0.00,VWS V14.00,2013-03-16 19:00:00,
2013-03-16 15:30:00,33.8,32.3,29.92,NE,41,4.0,11.0,94,0.00,,---,0.00,VWS V14.00,2013-03-16 19:30:00,
2013-03-16 16:00:00,34.0,31.6,29.92,North,8,4.0,12.0,91,0.00,,---,0.00,VWS V14.00,2013-03-16 20:00:00,
2013-03-16 16:30:00,33.4,30.8,29.93,NNE,13,7.0,13.0,90,0.00,,---,0.00,VWS V14.00,2013-03-16 20:30:00,
2013-03-16 17:00:00,33.6,30.1,29.95,ENE,60,6.0,13.0,87,0.00,,---,0.00,VWS V14.00,2013-03-16 21:00:00,
2013-03-16 17:30:00,33.7,30.2,29.97,North,356,3.0,10.0,87,0.00,,---,0.00,VWS V14.00,2013-03-16 21:30:00,
2013-03-16 18:00:00,33.5,29.8,29.97,NNW,345,4.0,9.0,86,0.00,,---,0.00,VWS V14.00,2013-03-16 22:00:00,
2013-03-16 18:30:00,33.4,28.8,29.99,NE,51,4.0,9.0,83,0.00,,---,0.00,VWS V14.00,2013-03-16 22:30:00,
2013-03-16 19:00:00,33.3,29.0,29.99,NE,42,1.0,9.0,84,0.00,,---,0.00,VWS V14.00,2013-03-16 23:00:00,
2013-03-16 19:30:00,32.9,28.0,30.00,NE,49,4.0,6.0,82,0.00,,---,0.00,VWS V14.00,2013-03-16 23:30:00,
2013-03-16 20:00:00,32.9,28.0,30.02,NNE,20,1.0,4.0,82,0.00,,---,0.00,VWS V14.00,2013-03-17 00:00:00,
2013-03-16 20:29:00,33.3,28.7,30.02,NNW,347,6.0,7.0,83,0.00,,---,0.00,VWS V14.00,2013-03-17 00:29:00,
2013-03-16 20:30:00,33.3,28.7,30.02,NNW,347,6.0,7.0,83,0.00,,---,0.00,VWS V14.01,2013-03-17 00:30:00,
2013-03-16 21:00:00,33.1,27.6,30.03,NNW,331,2.0,10.0,80,0.00,,---,0.00,VWS V14.00,2013-03-17 01:00:00,
2013-03-16 21:30:00,32.1,27.5,30.03,NNW,347,7.0,10.0,83,0.00,,---,0.00,VWS V14.00,2013-03-17 01:30:00,
2013-03-16 22:00:00,31.5,27.5,30.04,NNE,13,4.0,11.0,85,0.00,,---,0.00,VWS V14.00,2013-03-17 02:00:00,
2013-03-16 22:30:00,31.3,27.3,30.07,NW,326,6.0,10.0,85,0.00,,---,0.00,VWS V14.00,2013-03-17 02:30:00,
2013-03-16 23:00:00,31.1,26.8,30.09,NNW,340,8.0,11.0,84,0.00,,---,0.00,VWS V14.00,2013-03-17 03:00:00,
2013-03-16 23:30:00,30.6,26.4,30.10,NNW,341,4.0,10.0,84,0.00,,---,0.00,VWS V14.00,2013-03-17 03:30:00,